Flag for Netherlands Weather past 2 weeks in Amsterdam, Netherlands

Now
52 °F

Passing clouds.


Feels Like: 48 °F
Forecast: 51 / 60 °F
Wind: 10 mph from Southwest

Location: Amsterdam Schiphol Airport

Current Time: Oct 26, 2014 at 3:20:28 AM

Latest Report: Oct 26, 2014 at 2:25 AM


Visibility: N/A

Pressure: 30.15 "Hg

Humidity: 94%

Dew point: 50 °F

Location of AmsterdamLocation

Historic Weather in Amsterdam — Graph

°F

Amsterdam temperature yesterday

Maximum temperature yesterday: 59 °F (at 11:55 AM)
Minimum temperature yesterday: 48 °F (at 9:55 PM)
Average temperature yesterday: 54 °F

Past Weeks' High & Low Weather Summary

 TemperatureHumidityPressure
High72 °F (Oct 18, 3:55 PM)100% (Oct 11, 2:55 AM)30.15 "Hg (Oct 11, 2:55 AM)
Low46 °F (Oct 22, 4:55 AM)6% (Oct 21, 5:25 PM)29.42 "Hg (Oct 21, 1:25 PM)
Average56 °F88%29.86 "Hg
* Reported Oct 11 2:55 AM — Oct 26 2:55 AM, Amsterdam, Weather by CustomWeather, © 2014

Note: Actual official high and low records may vary slightly from our data, if they occured in-between our weather recording intervals... More about our weather records

Advertising

Amsterdam weather history for previous 24 hours

 ConditionsComfort  
Time TempWeatherWind HumidityBarometerVisibility
2:55 AM
Oct 26
50 °FPassing clouds.9 mph94%30.15 "HgN/A
2:25 AM50 °FPassing clouds.9 mph94%30.15 "HgN/A
1:55 AM50 °FPassing clouds.8 mph94%30.15 "HgN/A
1:25 AM50 °FPassing clouds.8 mph94%30.15 "HgN/A
12:55 AM50 °FPassing clouds.9 mph94%30.15 "HgN/A
12:25 AM48 °FPassing clouds.9 mph94%30.15 "HgN/A
11:55 PM
Oct 25
50 °FPassing clouds.10 mph88%30.15 "HgN/A
11:25 PM50 °FPassing clouds.8 mph94%30.15 "HgN/A
10:55 PM48 °FPassing clouds.8 mph94%30.15 "HgN/A
10:25 PM48 °FPassing clouds.8 mph87%30.15 "HgN/A
9:55 PM48 °FPassing clouds.8 mph87%30.12 "HgN/A
9:25 PM52 °FPassing clouds.9 mph82%30.12 "HgN/A
8:55 PM54 °FPassing clouds.9 mph82%30.12 "HgN/A
8:25 PM52 °FPassing clouds.8 mph88%30.12 "HgN/A
7:55 PM52 °FPassing clouds.7 mph88%30.09 "HgN/A
7:25 PM52 °FPartly sunny.8 mph88%30.09 "HgN/A
6:55 PM50 °FPassing clouds.8 mph88%30.09 "HgN/A
6:25 PM54 °FPassing clouds.8 mph77%30.09 "HgN/A
5:25 PM55 °FPassing clouds.14 mph72%30.09 "HgN/A
4:55 PM57 °FPartly sunny.12 mph77%30.07 "HgN/A
4:25 PM55 °FBroken clouds.7 mph88%30.07 "HgN/A
3:55 PM57 °FBroken clouds.9 mph77%30.07 "HgN/A
3:25 PM57 °FBroken clouds.7 mph77%30.07 "HgN/A
2:55 PM57 °FBroken clouds.8 mph77%30.07 "HgN/A
2:25 PM57 °FBroken clouds.6 mph77%30.07 "HgN/A
1:55 PM57 °FPartly sunny.7 mph77%30.07 "HgN/A
1:25 PM57 °FBroken clouds.6 mph77%30.07 "HgN/A
12:55 PM57 °FPartly sunny.8 mph77%30.07 "HgN/A
12:25 PM57 °FPartly sunny.9 mph77%30.07 "HgN/A
11:55 AM59 °FPartly sunny.9 mph72%30.04 "HgN/A
11:25 AM57 °FScattered clouds.8 mph82%30.04 "HgN/A
10:55 AM57 °FScattered clouds.7 mph82%30.04 "HgN/A
10:25 AM57 °FPassing clouds.6 mph88%30.04 "HgN/A
9:55 AM54 °FFog.5 mph100%30.04 "Hg5 mi
9:25 AM54 °FFog.7 mph100%30.04 "Hg2 mi
8:55 AM54 °FPassing clouds.6 mph100%30.01 "Hg3 mi
8:25 AM54 °FFog.8 mph100%30.01 "Hg1 mi
7:25 AM52 °FFog.3 mph100%29.98 "HgN/A
6:55 AM54 °FPassing clouds.5 mph100%29.98 "HgN/A
6:25 AM54 °FPassing clouds.5 mph100%29.98 "HgN/A
5:55 AM54 °FPassing clouds.6 mph100%29.98 "Hg6 mi
5:25 AM55 °FPassing clouds.7 mph100%29.95 "Hg6 mi
4:55 AM55 °FFog.12 mph100%29.95 "Hg2 mi
4:25 AM55 °FLight rain. Fog.12 mph100%29.95 "Hg2 mi
3:55 AM55 °FFog.13 mph100%29.95 "Hg2 mi
3:25 AM55 °FFog.10 mph100%29.95 "Hg3 mi
Weather by CustomWeather, © 2014

See weather overviewHow to use our weather pages